Location: Vanderbilt Beach
(26.2700°N, 81.7900°W)
Time: 22:07:40
(UTC-05:00)

AO-7 - Visible Passes

Search period start: 30 November 2020 00:00
Search period end: 10 December 2020 00:00
Orbit: 1439 x 1459 km, 101.8° (Epoch: 30 November)

Date Brightness Start Highest point End Pass type
(mag) Time Alt. Az. Time Alt. Az. Time Alt. Az.
30 Nov ? 02:46:57 10° ENE 02:52:04 17° E 02:57:08 10° SE visible
30 Nov ? 04:36:50 10° N 04:45:07 72° WNW 04:53:25 10° SSW visible
30 Nov ? 06:35:37 10° NW 06:36:26 10° NW 06:37:14 10° WNW visible
01 Dec ? 03:37:22 10° NNE 03:45:15 45° ESE 03:53:06 10° S visible
01 Dec ? 05:30:35 10° N 05:37:35 31° WNW 05:44:35 10° WSW visible
02 Dec ? 02:40:40 10° ENE 02:44:58 15° E 02:49:15 10° SE visible
02 Dec ? 04:29:47 10° NNE 04:38:07 80° WNW 04:46:28 10° SSW visible
02 Dec ? 06:26:48 10° NW 06:29:34 12° WNW 06:32:22 10° WNW visible
03 Dec ? 03:30:31 10° NE 03:38:12 40° ESE 03:45:52 10° S visible
03 Dec ? 05:23:22 10° N 05:30:38 35° WNW 05:37:56 10° SW visible
04 Dec ? 02:34:39 10° ENE 02:37:53 13° E 02:41:05 10° ESE visible
04 Dec ? 04:22:46 10° NNE 04:31:08 88° WNW 04:39:29 10° SSW visible
04 Dec ? 06:18:54 10° NNW 06:22:42 14° WNW 06:26:31 10° W visible
05 Dec ? 03:23:41 10° NE 03:31:09 36° E 03:38:35 10° SSE visible
05 Dec ? 05:16:11 10° N 05:23:42 39° WNW 05:31:14 10° SW visible
06 Dec ? 02:29:35 10° E 02:30:47 10° E 02:32:00 10° ESE visible
06 Dec ? 04:15:45 10° NNE 04:24:08 84° ESE 04:32:30 10° SSW visible
06 Dec ? 06:11:16 10° NNW 06:15:50 16° WNW 06:20:25 10° W visible
07 Dec ? 03:16:55 10° NE 03:24:06 32° E 03:31:15 10° SSE visible
07 Dec ? 05:09:01 10° N 05:16:44 44° WNW 05:24:29 10° SW visible
08 Dec ? 04:08:46 10° NNE 04:17:07 75° ESE 04:25:27 10° S visible
08 Dec ? 06:03:45 10° NNW 06:08:56 18° WNW 06:14:09 10° W visible
09 Dec ? 03:10:12 10° NE 03:17:03 28° E 03:23:52 10° SSE visible
09 Dec ? 05:01:53 10° N 05:09:47 49° WNW 05:17:42 10° SW visible
